Total_Precipitation_Accumulation
0.00 0.00 0.01 0.01 0.02 0.04 0.06 0.05 0.05 0.04 0.05 0.06 0.06 0.07 0.11 0.06 0.01 0.00 0.01 0.01 0.00 0.01 0.00 0.00 0.00 0.00 0.01 0.02 0.02 0.01 0.01 0.01 0.01 0.02 0.02 0.02 0.01 0.01 0.00 0.00 0.00 0.01 0.03 0.05 0.05 0.05 0.00 0.00 0.00 0.00 0.00 0.00 0.00 0.00
0.02 0.02 0.02 0.03 0.05 0.08 0.08 0.06 0.04 0.03 0.05 0.06 0.05 0.07 0.18 0.09 0.04 0.01 0.00 0.01 0.01 0.02 0.01 0.00 0.00 0.00 0.00 0.01 0.01 0.00 0.03 0.00 0.00 0.01 0.02 0.03 0.03 0.01 0.00 0.00 0.00 0.00 0.00 0.00 0.00 0.00 0.00 0.00 0.00 0.00 0.00 0.00 0.00 0.00
0.05 0.06 0.07 0.09 0.12 0.10 0.10 0.07 0.06 0.06 0.06 0.05 0.05 0.08 0.13 0.13 0.11 0.05 0.01 0.01 0.03 0.04 0.01 0.00 0.01 0.00 0.00 0.00 0.01 0.01 0.02 0.00 0.01 0.01 0.05 0.04 0.02 0.02 0.02 0.01 0.00 0.00 0.00 0.00 0.00 0.00 0.00 0.00 0.00 0.00 0.00 0.00 0.00 0.00
0.11 0.13 0.13 0.15 0.16 0.13 0.11 0.11 0.09 0.09 0.08 0.09 0.07 0.08 0.09 0.12 0.15 0.09 0.03 0.01 0.04 0.07 0.08 0.02 0.00 0.00 0.00 0.00 0.01 0.02 0.04 0.02 0.03 0.04 0.05 0.04 0.02 0.02 0.02 0.01 0.00 0.01 0.00 0.00 0.00 0.00 0.00 0.00 0.00 0.00 0.00 0.00 0.00 0.00
0.13 0.12 0.13 0.19 0.17 0.13 0.12 0.10 0.10 0.12 0.13 0.10 0.08 0.07 0.10 0.13 0.08 0.05 0.01 0.00 0.02 0.11 0.16 0.05 0.05 0.00 0.00 0.01 0.04 0.04 0.08 0.14 0.11 0.17 0.16 0.04 0.02 0.02 0.00 0.00 0.00 0.00 0.00 0.00 0.00 0.00 0.00 0.00 0.00 0.00 0.00 0.00 0.00 0.00
0.12 0.12 0.14 0.14 0.13 0.14 0.16 0.17 0.16 0.15 0.14 0.13 0.09 0.11 0.10 0.06 0.09 0.06 0.02 0.07 0.03 0.05 0.31 0.17 0.23 0.03 0.03 0.05 0.14 0.15 0.17 0.25 0.32 0.23 0.22 0.13 0.02 0.04 0.04 0.02 0.00 0.00 0.00 0.00 0.00 0.00 0.00 0.00 0.00 0.00 0.00 0.00 0.00 0.00
0.14 0.13 0.13 0.17 0.21 0.25 0.26 0.22 0.17 0.16 0.16 0.11 0.11 0.08 0.02 0.03 0.06 0.03 0.05 0.36 0.13 0.12 0.29 0.39 0.57 0.15 0.13 0.21 0.20 0.41 0.28 0.43 0.45 0.40 0.23 0.13 0.03 0.12 0.10 0.01 0.00 0.00 0.00 0.00 0.00 0.00 0.00 0.00 0.00 0.00 0.00 0.00 0.00 0.00
0.22 0.19 0.21 0.24 0.27 0.25 0.19 0.15 0.14 0.14 0.12 0.09 0.05 0.01 0.01 0.05 0.03 0.02 0.01 0.07 0.15 0.51 0.57 0.88 0.87 0.44 0.49 0.55 0.43 0.54 0.55 0.62 0.67 0.54 0.21 0.16 0.08 0.06 0.03 0.00 0.00 0.00 0.00 0.00 0.00 0.00 0.00 0.00 0.00 0.00 0.00 0.00 0.00 0.00
0.20 0.18 0.15 0.15 0.20 0.20 0.16 0.14 0.12 0.11 0.08 0.03 0.00 0.01 0.08 0.05 0.03 0.02 0.04 0.07 0.29 0.70 0.73 0.68 0.65 0.60 0.67 0.61 0.61 0.52 0.80 0.69 0.61 0.43 0.16 0.21 0.18 0.03 0.00 0.01 0.00 0.00 0.00 0.00 0.00 0.00 0.00 0.00 0.00 0.00 0.00 0.00 0.00 0.00
0.19 0.13 0.09 0.12 0.16 0.16 0.14 0.11 0.11 0.09 0.02 0.00 0.00 0.02 0.03 0.00 0.00 0.02 0.14 0.39 0.54 0.50 0.40 0.48 0.57 0.63 0.81 0.57 0.47 0.48 0.57 0.45 0.56 0.29 0.14 0.13 0.05 0.00 0.00 0.00 0.00 0.00 0.00 0.00 0.00 0.00 0.00 0.00 0.00 0.00 0.00 0.00 0.00 0.00
0.14 0.07 0.04 0.08 0.13 0.13 0.09 0.09 0.08 0.01 0.00 0.00 0.00 0.00 0.00 0.00 0.09 0.25 0.39 0.45 0.34 0.21 0.25 0.35 0.49 0.44 0.36 0.36 0.29 0.37 0.41 0.24 0.25 0.21 0.14 0.04 0.01 0.00 0.00 0.00 0.00 0.00 0.00 0.00 0.00 0.00 0.00 0.00 0.00 0.00 0.00 0.01 0.04 0.03
0.14 0.07 0.05 0.07 0.09 0.10 0.08 0.06 0.03 0.00 0.00 0.00 0.00 0.01 0.01 0.08 0.17 0.20 0.22 0.26 0.14 0.10 0.18 0.36 0.36 0.33 0.23 0.15 0.16 0.15 0.10 0.09 0.07 0.03 0.02 0.01 0.00 0.00 0.00 0.00 0.00 0.00 0.00 0.00 0.00 0.00 0.00 0.00 0.00 0.00 0.00 0.00 0.01 0.08
0.18 0.12 0.08 0.08 0.10 0.07 0.05 0.02 0.01 0.00 0.00 0.01 0.01 0.00 0.01 0.03 0.05 0.05 0.06 0.09 0.05 0.07 0.10 0.11 0.21 0.20 0.21 0.14 0.08 0.08 0.01 0.00 0.00 0.00 0.00 0.00 0.00 0.00 0.00 0.00 0.00 0.00 0.00 0.00 0.00 0.01 0.01 0.01 0.02 0.02 0.02 0.01 0.00 0.01
0.21 0.15 0.13 0.14 0.12 0.07 0.05 0.02 0.01 0.00 0.00 0.00 0.00 0.00 0.00 0.01 0.01 0.00 0.01 0.02 0.02 0.03 0.02 0.03 0.09 0.14 0.22 0.12 0.07 0.01 0.01 0.00 0.00 0.00 0.00 0.00 0.00 0.00 0.00 0.00 0.00 0.00 0.00 0.02 0.07 0.16 0.18 0.21 0.22 0.26 0.26 0.24 0.18 0.11
0.22 0.15 0.14 0.14 0.13 0.09 0.08 0.04 0.01 0.00 0.00 0.00 0.00 0.00 0.00 0.00 0.00 0.00 0.00 0.01 0.01 0.02 0.03 0.01 0.04 0.04 0.10 0.11 0.05 0.03 0.01 0.00 0.00 0.00 0.00 0.00 0.00 0.00 0.00 0.00 0.00 0.00 0.01 0.00 0.01 0.07 0.09 0.14 0.27 0.29 0.28 0.23 0.15 0.11
0.30 0.28 0.13 0.06 0.07 0.08 0.08 0.02 0.00 0.00 0.00 0.00 0.00 0.00 0.00 0.00 0.00 0.00 0.00 0.00 0.00 0.01 0.04 0.07 0.10 0.08 0.06 0.08 0.03 0.00 0.00 0.00 0.00 0.00 0.00 0.00 0.00 0.00 0.00 0.00 0.00 0.00 0.00 0.00 0.00 0.01 0.01 0.00 0.00 0.00 0.02 0.09 0.15 0.14
0.48 0.16 0.04 0.06 0.07 0.05 0.04 0.01 0.00 0.00 0.00 0.00 0.00 0.00 0.00 0.00 0.00 0.00 0.00 0.00 0.00 0.03 0.15 0.21 0.19 0.08 0.07 0.07 0.01 0.00 0.00 0.00 0.00 0.00 0.00 0.00 0.00 0.00 0.00 0.00 0.00 0.00 0.00 0.00 0.00 0.00 0.00 0.00 0.00 0.00 0.00 0.01 0.03 0.08
0.20 0.02 0.07 0.11 0.06 0.03 0.03 0.00 0.00 0.00 0.00 0.00 0.00 0.00 0.00 0.00 0.00 0.00 0.00 0.00 0.01 0.03 0.12 0.29 0.17 0.13 0.05 0.02 0.00 0.00 0.00 0.00 0.00 0.00 0.00 0.00 0.00 0.00 0.00 0.00 0.00 0.00 0.00 0.00 0.00 0.00 0.00 0.00 0.00 0.00 0.00 0.00 0.00 0.00
0.06 0.10 0.20 0.13 0.11 0.10 0.08 0.03 0.00 0.00 0.00 0.00 0.00 0.00 0.00 0.00 0.01 0.01 0.01 0.00 0.00 0.01 0.07 0.13 0.13 0.05 0.00 0.00 0.00 0.00 0.00 0.00 0.00 0.00 0.00 0.00 0.00 0.00 0.00 0.00 0.00 0.00 0.00 0.00 0.00 0.00 0.00 0.00 0.00 0.00 0.00 0.00 0.00 0.00
0.26 0.43 0.41 0.29 0.15 0.14 0.12 0.04 0.01 0.00 0.00 0.00 0.00 0.00 0.00 0.01 0.01 0.01 0.01 0.01 0.01 0.03 0.02 0.02 0.01 0.00 0.00 0.01 0.02 0.02 0.01 0.00 0.00 0.00 0.00 0.00 0.00 0.00 0.00 0.00 0.00 0.00 0.00 0.00 0.00 0.00 0.00 0.00 0.00 0.00 0.00 0.00 0.00 0.00
0.53 0.66 0.51 0.26 0.18 0.11 0.09 0.01 0.00 0.00 0.00 0.00 0.00 0.00 0.00 0.00 0.00 0.00 0.02 0.03 0.04 0.02 0.00 0.00 0.00 0.00 0.00 0.00 0.00 0.01 0.01 0.01 0.00 0.00 0.00 0.00 0.00 0.00 0.00 0.00 0.00 0.00 0.00 0.00 0.00 0.00 0.00 0.00 0.00 0.00 0.00 0.00 0.00 0.00
0.22 0.31 0.29 0.35 0.21 0.16 0.07 0.01 0.00 0.00 0.00 0.00 0.00 0.00 0.00 0.00 0.00 0.00 0.01 0.02 0.01 0.00 0.00 0.00 0.00 0.00 0.00 0.00 0.00 0.00 0.00 0.00 0.00 0.00 0.00 0.00 0.00 0.00 0.00 0.00 0.00 0.00 0.00 0.00 0.00 0.00 0.00 0.00 0.00 0.00 0.00 0.00 0.00 0.00
0.28 0.35 0.37 0.31 0.21 0.14 0.05 0.01 0.01 0.00 0.00 0.00 0.00 0.00 0.00 0.00 0.00 0.01 0.01 0.00 0.00 0.00 0.00 0.00 0.00 0.00 0.00 0.00 0.00 0.00 0.00 0.00 0.00 0.00 0.00 0.01 0.00 0.00 0.00 0.00 0.00 0.00 0.00 0.00 0.00 0.00 0.00 0.00 0.00 0.00 0.00 0.00 0.00 0.00
0.26 0.37 0.38 0.28 0.16 0.07 0.03 0.02 0.02 0.01 0.01 0.00 0.00 0.00 0.00 0.00 0.01 0.01 0.00 0.00 0.00 0.00 0.00 0.00 0.00 0.00 0.00 0.00 0.00 0.00 0.00 0.00 0.00 0.00 0.00 0.01 0.01 0.01 0.01 0.01 0.00 0.00 0.00 0.00 0.00 0.00 0.00 0.00 0.00 0.00 0.00 0.00 0.00 0.00
0.70 0.58 0.30 0.19 0.07 0.04 0.02 0.02 0.01 0.01 0.00 0.00 0.01 0.00 0.00 0.01 0.00 0.00 0.00 0.00 0.00 0.00 0.00 0.00 0.00 0.00 0.00 0.00 0.00 0.00 0.00 0.00 0.00 0.00 0.00 0.02 0.04 0.06 0.05 0.03 0.02 0.01 0.00 0.00 0.00 0.00 0.00 0.00 0.00 0.00 0.00 0.00 0.00 0.00
0.59 0.22 0.07 0.01 0.02 0.01 0.00 0.00 0.00 0.00 0.00 0.00 0.01 0.00 0.00 0.00 0.00 0.00 0.00 0.00 0.00 0.00 0.00 0.00 0.00 0.00 0.00 0.00 0.00 0.00 0.00 0.00 0.00 0.00 0.00 0.01 0.06 0.10 0.12 0.12 0.08 0.04 0.02 0.03 0.03 0.02 0.01 0.00 0.00 0.00 0.00 0.00 0.01 0.02
0.25 0.14 0.07 0.01 0.01 0.01 0.00 0.00 0.00 0.00 0.00 0.00 0.00 0.00 0.00 0.00 0.00 0.00 0.00 0.00 0.00 0.00 0.00 0.00 0.00 0.00 0.00 0.00 0.00 0.00 0.00 0.00 0.00 0.00 0.00 0.01 0.02 0.05 0.10 0.12 0.11 0.09 0.09 0.11 0.09 0.07 0.04 0.03 0.02 0.03 0.04 0.04 0.03 0.02
0.05 0.00 0.01 0.01 0.00 0.00 0.01 0.01 0.00 0.00 0.00 0.00 0.00 0.00 0.00 0.00 0.00 0.00 0.00 0.00 0.00 0.00 0.00 0.00 0.00 0.00 0.00 0.00 0.00 0.00 0.00 0.00 0.00 0.00 0.00 0.01 0.02 0.03 0.05 0.08 0.12 0.14 0.15 0.13 0.10 0.12 0.13 0.11 0.09 0.09 0.10 0.08 0.07 0.06
0.01 0.00 0.00 0.00 0.00 0.00 0.01 0.01 0.01 0.00 0.00 0.00 0.00 0.00 0.00 0.00 0.00 0.00 0.00 0.00 0.00 0.00 0.00 0.00 0.00 0.00 0.00 0.00 0.00 0.00 0.00 0.00 0.01 0.01 0.01 0.01 0.02 0.04 0.06 0.09 0.14 0.17 0.16 0.16 0.16 0.17 0.18 0.20 0.21 0.22 0.21 0.19 0.16 0.16
0.00 0.00 0.00 0.00 0.00 0.00 0.00 0.00 0.00 0.00 0.00 0.00 0.00 0.00 0.00 0.00 0.00 0.00 0.00 0.00 0.00 0.00 0.00 0.00 0.00 0.00 0.00 0.00 0.00 0.00 0.00 0.00 0.01 0.01 0.01 0.01 0.03 0.06 0.09 0.10 0.13 0.17 0.21 0.23 0.26 0.32 0.40 0.47 0.50 0.48 0.43 0.38 0.33 0.29
0.00 0.00 0.00 0.00 0.00 0.00 0.00 0.00 0.00 0.00 0.00 0.00 0.00 0.00 0.00 0.00 0.00 0.00 0.00 0.00 0.00 0.00 0.00 0.00 0.00 0.00 0.00 0.00 0.00 0.01 0.00 0.00 0.00 0.00 0.02 0.03 0.04 0.06 0.07 0.09 0.11 0.16 0.23 0.27 0.27 0.28 0.29 0.26 0.23 0.22 0.25 0.27 0.26 0.23
0.00 0.00 0.00 0.00 0.00 0.00 0.00 0.00 0.00 0.00 0.00 0.00 0.00 0.00 0.00 0.00 0.00 0.00 0.00 0.00 0.00 0.00 0.00 0.00 0.00 0.00 0.00 0.00 0.01 0.01 0.02 0.01 0.01 0.01 0.03 0.05 0.05 0.07 0.09 0.11 0.15 0.18 0.22 0.25 0.27 0.29 0.28 0.30 0.32 0.32 0.35 0.37 0.35 0.30
0.02 0.01 0.00 0.00 0.00 0.00 0.00 0.00 0.00 0.00 0.00 0.00 0.00 0.00 0.00 0.00 0.00 0.00 0.00 0.00 0.00 0.00 0.00 0.00 0.00 0.00 0.01 0.02 0.02 0.02 0.02 0.02 0.02 0.03 0.06 0.09 0.12 0.14 0.18 0.20 0.19 0.21 0.24 0.29 0.35 0.41 0.42 0.41 0.39 0.37 0.36 0.34 0.34 0.32